BER115 EDDL-EDDB

Flight info

Callsign BER115
Flight time 0h 50m
Altitude 35000
Route MEVEL1Z MEVEL L179 MISRI Z851 ROBEG DCT BATEL T207 OGBER
Aircraft A319/M-SDE3FGHIRWY/LB1

Departure

Time 2026-05-07 15:39
Airport Düsseldorf Airport (EDDL)

Arrival

Time 2026-05-07 16:29
Airport Berlin Brandenburg Airport (EDDB)
Time Latitude Longitude Altitude Speed Heading
2026-05-07 15:28 51.27748 6.75920 128 ft 0 kts 91°
2026-05-07 15:34 51.27748 6.75929 128 ft 2 kts 91°
2026-05-07 15:35 51.27747 6.75975 128 ft 6 kts 91°
2026-05-07 15:35 51.27766 6.76042 129 ft 7 kts 15°
2026-05-07 15:35 51.27819 6.76038 128 ft 6 kts 338°
2026-05-07 15:35 51.27842 6.75971 128 ft 8 kts 268°
2026-05-07 15:36 51.27845 6.75869 128 ft 9 kts 281°
2026-05-07 15:36 51.27893 6.75814 127 ft 9 kts
2026-05-07 15:36 51.27964 6.75821 127 ft 10 kts
2026-05-07 15:36 51.28039 6.75834 127 ft 11 kts 16°
2026-05-07 15:37 51.28117 6.75889 127 ft 12 kts 26°
2026-05-07 15:37 51.28184 6.75941 127 ft 8 kts 24°
2026-05-07 15:37 51.28243 6.75983 127 ft 10 kts 24°
2026-05-07 15:37 51.28318 6.76037 127 ft 13 kts 24°
2026-05-07 15:38 51.28403 6.76128 128 ft 8 kts 51°
2026-05-07 15:38 51.28404 6.76130 127 ft 0 kts 52°
2026-05-07 15:38 51.28444 6.76210 127 ft 38 kts 52°
2026-05-07 15:38 51.28782 6.76912 129 ft 116 kts 53°
2026-05-07 15:39 51.29388 6.78186 293 ft 161 kts 53°
2026-05-07 15:39 51.30056 6.79591 1049 ft 162 kts 52°
2026-05-07 15:39 51.30743 6.81006 1785 ft 169 kts 51°
2026-05-07 15:39 51.31470 6.82516 2520 ft 178 kts 52°
2026-05-07 15:40 51.32245 6.84197 3073 ft 200 kts 52°
2026-05-07 15:40 51.33114 6.86060 3732 ft 218 kts 53°
2026-05-07 15:40 51.34026 6.88103 4396 ft 237 kts 53°
2026-05-07 15:40 51.35169 6.90080 5034 ft 254 kts 32°
2026-05-07 15:41 51.36827 6.91036 5893 ft 261 kts
2026-05-07 15:41 51.38621 6.91493 6914 ft 264 kts
2026-05-07 15:41 51.40459 6.91961 7875 ft 269 kts
2026-05-07 15:41 51.42312 6.92442 8753 ft 275 kts
2026-05-07 15:42 51.44213 6.92943 9609 ft 282 kts
2026-05-07 15:42 51.46167 6.93463 10475 ft 289 kts
2026-05-07 15:42 51.48189 6.93963 11044 ft 305 kts
2026-05-07 15:42 51.50366 6.94072 11519 ft 322 kts 356°
2026-05-07 15:43 51.52654 6.93645 11950 ft 340 kts 350°
2026-05-07 15:43 51.55029 6.92987 12530 ft 352 kts 349°
2026-05-07 15:43 51.57441 6.92286 13327 ft 356 kts 349°
2026-05-07 15:43 51.59880 6.91583 14138 ft 359 kts 349°
2026-05-07 15:44 51.62336 6.90884 14889 ft 363 kts 349°
2026-05-07 15:44 51.64829 6.90182 15606 ft 368 kts 349°
2026-05-07 15:44 51.67379 6.89621 16301 ft 373 kts 358°
2026-05-07 15:44 51.69951 6.90288 16979 ft 379 kts 19°
2026-05-07 15:45 51.72243 6.92368 17660 ft 385 kts 39°
2026-05-07 15:45 51.74029 6.95573 18322 ft 389 kts 52°
2026-05-07 15:45 51.75631 6.99125 18946 ft 394 kts 53°
2026-05-07 15:45 51.77237 7.02752 19563 ft 397 kts 53°
2026-05-07 15:46 51.80496 7.10018 20779 ft 404 kts 53°
2026-05-07 15:46 51.82159 7.13692 21353 ft 408 kts 53°
2026-05-07 15:46 51.83837 7.17407 21911 ft 411 kts 54°
2026-05-07 15:47 51.85430 7.21260 22459 ft 415 kts 57°
2026-05-07 15:47 51.86884 7.25291 23002 ft 418 kts 61°
2026-05-07 15:47 51.88254 7.29438 23526 ft 421 kts 62°
2026-05-07 15:47 51.89599 7.33592 24030 ft 424 kts 62°
2026-05-07 15:48 51.90976 7.37853 24523 ft 428 kts 62°
2026-05-07 15:48 51.92359 7.42127 25004 ft 431 kts 62°
2026-05-07 15:48 51.93642 7.46522 25472 ft 434 kts 66°
2026-05-07 15:48 51.94733 7.51061 25922 ft 437 kts 70°
2026-05-07 15:49 51.95642 7.55809 26367 ft 440 kts 73°
2026-05-07 15:49 51.96462 7.60601 26806 ft 443 kts 74°
2026-05-07 15:49 51.97260 7.65369 27237 ft 445 kts 75°
2026-05-07 15:49 51.98084 7.70304 27663 ft 448 kts 75°
2026-05-07 15:50 51.98901 7.75191 28073 ft 451 kts 75°
2026-05-07 15:50 51.99725 7.80103 28491 ft 453 kts 75°
2026-05-07 15:50 52.00542 7.84981 28898 ft 454 kts 75°
2026-05-07 15:50 52.01373 7.89945 29276 ft 457 kts 75°
2026-05-07 15:51 52.02210 7.94980 29713 ft 457 kts 75°
2026-05-07 15:51 52.03025 7.99897 30255 ft 455 kts 75°
2026-05-07 15:51 52.03845 8.04848 30800 ft 452 kts 75°
2026-05-07 15:51 52.04649 8.09723 31271 ft 451 kts 75°
2026-05-07 15:52 52.05461 8.14653 31699 ft 449 kts 74°
2026-05-07 15:52 52.06267 8.19564 32102 ft 449 kts 74°
2026-05-07 15:52 52.07055 8.24384 32487 ft 448 kts 74°
2026-05-07 15:52 52.07854 8.29279 32893 ft 447 kts 74°
2026-05-07 15:53 52.08648 8.34159 33297 ft 445 kts 74°
2026-05-07 15:53 52.09436 8.39026 33659 ft 445 kts 74°
2026-05-07 15:53 52.10220 8.43864 33946 ft 445 kts 74°
2026-05-07 15:53 52.11018 8.48729 34175 ft 446 kts 74°
2026-05-07 15:54 52.11821 8.53614 34406 ft 447 kts 74°
2026-05-07 15:54 52.12620 8.58524 34628 ft 448 kts 74°
2026-05-07 15:54 52.13411 8.63424 34842 ft 449 kts 74°
2026-05-07 15:54 52.14194 8.68317 35017 ft 450 kts 75°
2026-05-07 15:55 52.14987 8.73301 35080 ft 452 kts 75°
2026-05-07 15:55 52.16552 8.83205 35076 ft 452 kts 75°
2026-05-07 15:56 52.18108 8.93090 35083 ft 452 kts 75°
2026-05-07 15:56 52.19660 9.03016 35085 ft 452 kts 75°
2026-05-07 15:57 52.21198 9.12921 35084 ft 452 kts 75°
2026-05-07 15:57 52.22730 9.22848 35090 ft 452 kts 75°
2026-05-07 15:58 52.24390 9.32708 35084 ft 452 kts 72°
2026-05-07 15:58 52.26147 9.42460 35086 ft 452 kts 72°
2026-05-07 15:59 52.27908 9.52300 35079 ft 452 kts 73°
2026-05-07 15:59 52.29662 9.62182 35086 ft 452 kts 73°
2026-05-07 16:00 52.31402 9.72073 35087 ft 453 kts 73°
2026-05-07 16:00 52.33134 9.81984 35086 ft 453 kts 73°
2026-05-07 16:01 52.34861 9.91898 35096 ft 454 kts 73°
2026-05-07 16:01 52.36568 10.01763 35092 ft 453 kts 73°
2026-05-07 16:02 52.38277 10.11683 35085 ft 453 kts 73°
2026-05-07 16:02 52.39972 10.21568 35089 ft 452 kts 74°
2026-05-07 16:03 52.41653 10.31437 35088 ft 453 kts 74°
2026-05-07 16:03 52.43338 10.41391 35085 ft 453 kts 74°
2026-05-07 16:04 52.45007 10.51297 35085 ft 453 kts 74°
2026-05-07 16:04 52.46668 10.61212 35046 ft 452 kts 74°
2026-05-07 16:04 52.47496 10.66183 34678 ft 451 kts 75°
2026-05-07 16:05 52.48324 10.71180 34013 ft 454 kts 75°
2026-05-07 16:05 52.49152 10.76186 33301 ft 458 kts 75°
2026-05-07 16:05 52.49976 10.81175 32576 ft 460 kts 75°
2026-05-07 16:05 52.50809 10.86233 31758 ft 461 kts 75°
2026-05-07 16:06 52.51644 10.91321 30833 ft 463 kts 75°
2026-05-07 16:06 52.52477 10.96417 29716 ft 466 kts 75°
2026-05-07 16:06 52.53310 11.01526 28544 ft 469 kts 75°
2026-05-07 16:06 52.54066 11.06694 27820 ft 462 kts 78°
2026-05-07 16:07 52.54579 11.11804 27247 ft 453 kts 82°
2026-05-07 16:07 52.54854 11.16874 26701 ft 445 kts 86°
2026-05-07 16:07 52.54990 11.21897 26159 ft 437 kts 87°
2026-05-07 16:07 52.55098 11.26868 25624 ft 431 kts 88°
2026-05-07 16:08 52.55200 11.31725 25106 ft 424 kts 88°
2026-05-07 16:08 52.55300 11.36518 24607 ft 418 kts 87°
2026-05-07 16:08 52.55399 11.41221 24096 ft 413 kts 87°
2026-05-07 16:08 52.55497 11.45870 23616 ft 408 kts 87°
2026-05-07 16:09 52.55592 11.50475 23115 ft 404 kts 87°
2026-05-07 16:09 52.55686 11.55063 22631 ft 400 kts 87°
2026-05-07 16:09 52.55778 11.59589 22155 ft 396 kts 87°
2026-05-07 16:09 52.55867 11.64061 21683 ft 393 kts 87°
2026-05-07 16:10 52.55953 11.68511 21205 ft 390 kts 88°
2026-05-07 16:10 52.56039 11.72967 20724 ft 387 kts 88°
2026-05-07 16:10 52.56121 11.77362 20251 ft 384 kts 88°
2026-05-07 16:10 52.56202 11.81728 19773 ft 382 kts 88°
2026-05-07 16:11 52.56281 11.86018 19308 ft 380 kts 88°
2026-05-07 16:11 52.56358 11.90330 18829 ft 378 kts 88°
2026-05-07 16:11 52.56433 11.94630 18343 ft 376 kts 87°
2026-05-07 16:11 52.56505 11.98913 17875 ft 374 kts 87°
2026-05-07 16:12 52.56575 12.03178 17424 ft 372 kts 87°
2026-05-07 16:12 52.56643 12.07367 16974 ft 370 kts 87°
2026-05-07 16:12 52.56683 12.11596 16525 ft 367 kts 88°
2026-05-07 16:12 52.56680 12.15779 16078 ft 365 kts 89°
2026-05-07 16:13 52.56682 12.19931 15626 ft 363 kts 87°
2026-05-07 16:13 52.56814 12.24022 15171 ft 360 kts 83°
2026-05-07 16:13 52.57114 12.28081 14715 ft 358 kts 80°
2026-05-07 16:13 52.57499 12.32112 14255 ft 356 kts 79°
2026-05-07 16:14 52.57893 12.36115 13804 ft 353 kts 79°
2026-05-07 16:14 52.58284 12.40092 13353 ft 351 kts 79°
2026-05-07 16:14 52.58667 12.44023 12966 ft 345 kts 79°
2026-05-07 16:14 52.59042 12.47891 12644 ft 337 kts 79°
2026-05-07 16:15 52.59405 12.51670 12261 ft 331 kts 79°
2026-05-07 16:15 52.59757 12.55333 11879 ft 326 kts 79°
2026-05-07 16:15 52.60107 12.59001 11486 ft 321 kts 79°
2026-05-07 16:15 52.60447 12.62592 11105 ft 316 kts 79°
2026-05-07 16:16 52.60778 12.66096 10761 ft 310 kts 80°
2026-05-07 16:16 52.61109 12.69610 10441 ft 304 kts 80°
2026-05-07 16:16 52.61411 12.72978 10272 ft 293 kts 84°
2026-05-07 16:16 52.61218 12.76215 10158 ft 287 kts 107°
2026-05-07 16:17 52.60244 12.79056 10072 ft 289 kts 131°
2026-05-07 16:17 52.58635 12.81060 10064 ft 290 kts 154°
2026-05-07 16:17 52.56730 12.81866 9810 ft 288 kts 176°
2026-05-07 16:17 52.54738 12.81899 9460 ft 285 kts 180°
2026-05-07 16:18 52.52751 12.81854 9172 ft 281 kts 180°
2026-05-07 16:18 52.50824 12.81833 8860 ft 278 kts 179°
2026-05-07 16:18 52.48897 12.81843 8505 ft 277 kts 177°
2026-05-07 16:18 52.47041 12.82498 8116 ft 273 kts 150°
2026-05-07 16:19 52.45594 12.84375 7817 ft 266 kts 133°
2026-05-07 16:19 52.44301 12.86579 7445 ft 265 kts 131°
2026-05-07 16:19 52.43027 12.88774 7095 ft 264 kts 131°
2026-05-07 16:19 52.41758 12.90930 6736 ft 264 kts 131°
2026-05-07 16:20 52.40486 12.93064 6462 ft 260 kts 131°
2026-05-07 16:20 52.39236 12.95148 6230 ft 254 kts 131°
2026-05-07 16:20 52.38019 12.97171 6080 ft 248 kts 131°
2026-05-07 16:20 52.36797 12.99200 6023 ft 250 kts 132°
2026-05-07 16:21 52.35566 13.01216 5750 ft 248 kts 132°
2026-05-07 16:21 52.34364 13.03172 5509 ft 244 kts 132°
2026-05-07 16:21 52.33169 13.05115 5270 ft 240 kts 132°
2026-05-07 16:21 52.31998 13.07019 5037 ft 236 kts 132°
2026-05-07 16:22 52.30839 13.08905 4808 ft 232 kts 132°
2026-05-07 16:22 52.29711 13.10736 4591 ft 229 kts 132°
2026-05-07 16:22 52.28601 13.12563 4383 ft 224 kts 128°
2026-05-07 16:22 52.27744 13.14625 4166 ft 214 kts 108°
2026-05-07 16:23 52.27560 13.16905 3938 ft 195 kts 79°
2026-05-07 16:23 52.27870 13.18972 3763 ft 180 kts 68°
2026-05-07 16:23 52.28334 13.20798 3621 ft 168 kts 64°
2026-05-07 16:23 52.28788 13.22498 3374 ft 158 kts 64°
2026-05-07 16:24 52.29191 13.24076 3140 ft 147 kts 65°
2026-05-07 16:24 52.29554 13.25565 2954 ft 138 kts 66°
2026-05-07 16:24 52.29897 13.27011 2769 ft 135 kts 66°
2026-05-07 16:24 52.30231 13.28433 2582 ft 136 kts 66°
2026-05-07 16:25 52.30566 13.29875 2391 ft 136 kts 66°
2026-05-07 16:25 52.30904 13.31330 2190 ft 135 kts 67°
2026-05-07 16:25 52.31238 13.32769 2005 ft 135 kts 67°
2026-05-07 16:25 52.31567 13.34183 1824 ft 135 kts 66°
2026-05-07 16:26 52.31893 13.35579 1625 ft 125 kts 68°
2026-05-07 16:26 52.32191 13.36852 1458 ft 120 kts 67°
2026-05-07 16:26 52.32492 13.38132 1296 ft 121 kts 68°
2026-05-07 16:26 52.32692 13.38986 1189 ft 121 kts 67°
2026-05-07 16:27 52.33098 13.40702 973 ft 121 kts 68°
2026-05-07 16:27 52.33402 13.42004 799 ft 126 kts 68°
2026-05-07 16:27 52.33724 13.43362 656 ft 128 kts 68°
2026-05-07 16:27 52.34045 13.44737 492 ft 128 kts 69°
2026-05-07 16:28 52.34363 13.46081 319 ft 126 kts 69°
2026-05-07 16:28 52.34671 13.47380 173 ft 114 kts 68°
2026-05-07 16:28 52.34920 13.48433 166 ft 79 kts 69°
2026-05-07 16:28 52.35102 13.49196 167 ft 63 kts 69°
2026-05-07 16:29 52.35252 13.49833 166 ft 56 kts 70°
2026-05-07 16:29 52.35387 13.50357 166 ft 38 kts 59°
2026-05-07 16:29 52.35511 13.50591 166 ft 21 kts 43°
2026-05-07 16:29 52.35607 13.50718 166 ft 9 kts 36°
2026-05-07 16:30 52.35631 13.50748 166 ft 5 kts 38°
2026-05-07 16:30 52.35674 13.50806 166 ft 9 kts 39°
2026-05-07 16:30 52.35713 13.50838 166 ft 5 kts 10°
2026-05-07 16:30 52.35772 13.50824 166 ft 11 kts 340°
2026-05-07 16:31 52.35846 13.50777 166 ft 10 kts 339°
2026-05-07 16:31 52.35920 13.50731 166 ft 12 kts 339°
2026-05-07 16:31 52.36011 13.50676 166 ft 14 kts 338°
2026-05-07 16:31 52.36100 13.50619 166 ft 13 kts 338°
2026-05-07 16:32 52.36189 13.50563 166 ft 13 kts 340°
2026-05-07 16:32 52.36248 13.50528 166 ft 3 kts
2026-05-07 16:32 52.36266 13.50580 166 ft 6 kts 65°
2026-05-07 16:32 52.36282 13.50646 166 ft 4 kts 69°
2026-05-07 16:33 52.36283 13.50653 166 ft 0 kts 69°